Regional Weather Roundup
Issued by NWS

Home | Current Version | Previous Version | Text Only | Print | Product List | Glossary On
Versions: 1 2 3 4 5 6 7 8 9 10 11 12 13 14 15 16 17 18 19 20 21 22 23 24 25 26
000
ASUS45 KTFX 280910
RWRMT
MONTANA REGIONAL WEATHER ROUNDUP
NATIONAL WEATHER SERVICE GREAT FALLS MT
300 AM MDT FRI JUL 28 2017

NOTE: "FAIR" INDICATES FEW OR NO CLOUDS BELOW 12000 FEET WITH NO
SIGNIFICANT WEATHER AND/OR OBSTRUCTIONS TO VISIBILITY.

MTZ001>007-043-281000-
WEST OF THE DIVIDE

CITY           SKY/WX    TMP DP  RH WIND       PRES   REMARKS
KALISPELL      CLEAR     54  47  77 NE6       30.01R
MISSOULA       CLEAR     68  51  54 E7        30.06R
BUTTE          CLEAR     55  44  66 S3        30.21R
MULLAN PASS    CLEAR     59  30  33 VRB5      30.20S
ANACONDA         N/A     61  46  59 SW7       30.16S
DEER LODGE       N/A     55  46  71 CALM      30.16F
EUREKA           N/A     63  45  51 MISG      29.99R
HAMILTON         N/A     64  52  63 S10       30.09S
LIBBY            N/A     57  45  62 CALM      30.00R
$$

MTZ008-052>055-281000-
SOUTHWEST MONTANA

CITY           SKY/WX    TMP DP  RH WIND       PRES   REMARKS
BOZEMAN        CLEAR     55  49  80 SE6       30.13S
DILLON         CLEAR     50  45  83 SW10      30.19R
W YELLOWSTONE  CLOUDY    41  41 100 CALM      30.30S
ENNIS          PTCLDY    54  45  71 E5        30.24S
THREE FORKS      N/A     62  49  62 CALM      30.11R
TWIN BRIDGES     N/A     51  42  71 CALM      30.15
$$

MTZ009-010-012-014-046-048-049-054-281000-
EAST SLOPES AND CENTRAL MONTANA

CITY           SKY/WX    TMP DP  RH WIND       PRES   REMARKS
CUT BANK       CLEAR     67  44  43 NW13      30.01R
GREAT FALLS    CLEAR     64  41  42 SW9       30.01R
HELENA         CLEAR     69  47  45 CALM      30.08R
CHOTEAU          N/A     68  43  40 S5        30.05R
$$

MTZ011-013-016-021-045-047-050-051-281000-
NORTH CENTRAL MONTANA

CITY           SKY/WX    TMP DP  RH WIND       PRES   REMARKS
HAVRE          CLEAR     65  45  48 W7        29.90R
LEWISTOWN      CLEAR     62  46  55 SE3       30.03S
N BAR RANCH      N/A     61  48  63 NW5       30.07S
CHINOOK          N/A     72  55  56 CALM      29.89S
$$

MTZ017>020-022>027-061-062-281000-
NORTHEAST MONTANA

CITY           SKY/WX    TMP DP  RH WIND       PRES   REMARKS
GLASGOW        CLEAR     63  53  70 E10       29.95S
JORDAN           N/A     62  50  64 E6        29.96S
SIDNEY         PTCLDY    64  58  80 CALM      29.99S
WOLF POINT     CLEAR     63  57  81 NE7       29.98R
MALTA          CLEAR     66  55  68 MISG      29.92R
PLENTYWOOD       N/A     63  61  94 CALM      30.00R
POPLAR           N/A     63  57  82 E5        29.99R
SCOBEY           N/A     57  45  64 CALM      29.98F
$$

MTZ028>42-056>058-281000-
SOUTHCENTRAL AND SOUTHEAST MONTANA

CITY           SKY/WX    TMP DP  RH WIND       PRES   REMARKS
BAKER          CLEAR     62  53  72 SE14      30.02R
BILLINGS       CLOUDY    69  54  58 S7        30.01S
LIVINGSTON     CLOUDY    68  47  46 W13       30.11R
MILES CITY     CLEAR     63  53  70 SE5       29.97R
BIG TIMBER     PTCLDY    66  46  48 W14G20    30.10S
EKALAKA          N/A     57  52  84 SE13      29.99
FORSYTH          N/A     66  55  68 CALM      29.96R
LAUREL           N/A     66  48  52 SW2       30.00F
$$

REGIONAL REPORTS...DAKOTAS

CITY           SKY/WX    TMP DP  RH WIND       PRES   REMARKS
WILLISTON      CLEAR     61  59  93 CALM      30.00S
MINOT          PTCLDY    69  58  67 SE6       30.03S
DICKINSON      CLOUDY    63  61  93 E7        30.02S
BEACH            N/A     61  59  94 SE9       30.04F
CROSBY           N/A     59  59 100 SW5       30.01S
TIOGA            N/A     57  57 100 E5        30.04S
WATFORD CITY     N/A     63  63 100 CALM      30.00S
BISMARCK       CLOUDY    68  60  75 E6        30.05F
GRAND FORKS    CLEAR     60  59  96 S3        30.06S
FARGO          CLEAR     62  58  86 SE6       30.07S
BUFFALO SD       N/A     61  57  87 SE8       29.97S
RAPID CITY     CLEAR     60  55  83 SE7       30.04F
$$

REGIONAL REPORTS...WYOMING/IDAHO/WASHINGTON

CITY           SKY/WX    TMP DP  RH WIND       PRES   REMARKS
GILLETTE       CLEAR     62  58  86 S14       30.06F
SHERIDAN       CLEAR     58  51  78 NE3       30.02R
BUFFALO WY     CLEAR     61  50  67 S8        30.09S
CODY           CLEAR     65  48  54 SW3       30.14S
YELLOWSTONE LA   N/A     41  41 100 CALM      30.37S
IDAHO FALLS    CLEAR     53  52  96 CALM      30.19R
BOISE          CLEAR     73  43  33 E10       29.99S
SPOKANE        CLEAR     67  42  40 S5        29.99R
$$

REGIONAL REPORTS...ALBERTA

CITY           SKY/WX    TMP DP  RH WIND       PRES   REMARKS
EDMONTON       CLEAR     55  54  94 W6        29.94S
CALGARY        MOCLDY    59  50  72 NW10G17   30.05R
LETHBRIDGE     CLEAR     66  55  68 NW12G18   30.00R
MEDICINE HAT   CLEAR     66  50  55 SW8       29.88R
WATERTON GATE    N/A     57  43  58 E6          N/A
CARDSTON         N/A     63  43  48 W6          N/A
MILK RIVER       N/A     61  46  59 W9          N/A
ONEFOUR          N/A     64  39  39 NW1         N/A
$$

REGIONAL REPORTS...SASKATCHEWAN

CITY           SKY/WX    TMP DP  RH WIND       PRES   REMARKS
SWIFT CURRENT  CLEAR     66  55  68 S14G20    29.89S
REGINA         CLEAR     61  57  88 SE10      29.97F
SASKATOON      CLEAR     70  57  64 S14       29.85F
VAL MARIE        N/A     66  52  59 SE10        N/A
ROCKGLEN         N/A     59  55  88 S10         N/A
ASSINIBOIA       N/A     57  57 100 W12         N/A
$$




USA.gov is the U.S. government's official web portal to all federal, state and local government web resources and services.